星链-36132(STARLINK-36132)

导读

STARLINK-36132是美国太空探索技术公司(SpaceX)星链计划的成员卫星,星链计划旨在构建全球卫星互联网星座,为全球提供高速低延迟互联网络。该卫星于2025年12月10日由美国发射升空,进入预定轨道后,将接替或补充星链网络的通信服务能力,进一步完善星链星座的全球覆盖布局,提升卫星网络整体服务容量与覆盖质量。

基本信息
目录编号:
67028
目录名称:
STARLINK-36132
国际标识:
2025-293AB
轨道中心:
EARTH
卫星名称:
星链-36132
卫星全名:
星链-36132(STARLINK-36132)
卫星状态:
在轨 (已飞行276 天)
发射日期:
2025-12-10 UTC
国别 :
美国 (US)
星等 :
--
该卫星已列入 空间交会检测服务 Space Conjunction Data Service (SCDS) ,当前飞行风险评估等级: 无高风险
轨道信息
数据来源 国际轨道数据
星历时间: 2026-09-12T00:13:16+0800
16小时前
查看轨道信息
半长轴: 6950.163km
偏心率: 0.0003369
轨道倾角: 70.003°
近地点辐角 270.148°
升交点赤经 345.640°
平近点角 89.929°
近地点: 569.684km
远地点: 574.368km
周期: 96.106分钟
每日圈数: 14.983399
详细信息
固有亮度:
5
最大亮度:
2.5
卫星平台:
Starlink V1.0
覆盖范围:
全球
运营商:
太空探索技术公司
运营商所在国:
美国
制造商(研发单位):
太空探索技术公司
制造商所在国:
美国
使用方式:
暂无
卫星简介
Starlink 计划是 SpaceX 推出的全球卫星互联网项目,通过发射低轨道卫星,为全球尤其是偏远地区提供高速、低延迟的互联网服务。自 2019 年起,Starlink 已部署数千颗卫星,旨在缩小全球数字鸿沟,推动互联网普及。该项目还为军事、航空等行业提供通信支持,带来广泛经济效益。
2D轨道图
3D轨道图
轨道高度分析图
轨道倾角分析图
轨道综合分析图
查看轨道综合分析图
交会数据列表
事件ID 空间交会对象 最接近时刻(TCA) 交会距离 交会风险概率(CRP) 交会风险指数(CRI) 操作
CDM_260913-032204-435306-702823
2026-09-13T
03:22:20+0000
2.131 km
极远距离
1.904355E-6 低风险 0.41
与全量物体交会距离演化趋势
与全量物体交会风险概率演化趋势